Zurück zum Katalog

COSMOS 2499 DEB

AktivPO
NORAD 60610·DEBRIS·🇷🇺 Russia

Gestartet May 23, 2014 von Plesetsk Cosmodrome

Loading…

Nächste Überflüge (nächste 24 Stunden)

TLE

AlterndSource: Space-Track

Epoche: Sep 7, 2026, 01:13 UTC

1 60610U 14028BW  26250.05093378  .00125631  00000-0  19456-1 0  9992
2 60610  82.0410  12.0593 0056353  69.2424 291.4809 14.71425580166642

Verfolge COSMOS 2499 DEB in Echtzeit mit AllMySat

Download on the App Store